Location: Peebles
(55.6412°N, 3.1714°W)
Time: 17:56:21
(UTC+00:00)

deb Agena D - Visible Passes

Search period start: 28 November 2022 00:00
Search period end: 08 December 2022 00:00
Orbit: 795 x 981 km, 99.8° (Epoch: 28 November)

Date Brightness Start Highest point End Pass type
(mag) Time Alt. Az. Time Alt. Az. Time Alt. Az.
28 Nov 8.2 07:08:31 10° E 07:12:26 21° NE 07:16:28 10° N visible
29 Nov 8.2 07:07:39 10° E 07:11:33 21° NE 07:15:34 10° N visible
30 Nov 8.2 07:06:46 10° E 07:10:40 21° NE 07:14:40 10° N visible
01 Dec 8.2 07:05:54 10° E 07:09:46 21° NE 07:13:47 10° N visible
02 Dec 8.2 07:05:02 10° E 07:08:54 21° NE 07:12:53 10° N visible
03 Dec 8.2 07:04:09 10° E 07:08:01 20° NE 07:11:59 10° N visible
04 Dec 8.3 07:03:17 10° E 07:07:08 20° NE 07:11:06 10° N visible
05 Dec 8.3 07:02:24 10° E 07:06:15 20° NE 07:10:12 10° N visible
06 Dec 8.3 07:01:32 10° E 07:05:22 20° NE 07:09:19 10° N visible
07 Dec 8.3 07:00:39 10° E 07:04:29 20° NE 07:08:25 10° N visible
